< < Back
Terminal Aerodrome Forecast


Current Version              Previous Versions:   1  2  3  4  5  6  7  8  9  

Terminal Aerodrome Forecast

305
FTUS42 KGSP 061133
TAFGSP
TAF
KGSP 061133Z 0612/0712 34009KT P6SM SKC
     FM061500 34014G23KT P6SM FEW050 SCT250
     FM070000 29006KT P6SM FEW250=

Latest METAR

826
SAUS70 KWBC 070000 RRI
MTRGSP
METAR KGSP 062353Z 35004KT 10SM CLR 18/03 A2985 RMK AO2 SLP103 T01780028
10217 20178 53012


USA.gov is the U.S. government's official web portal to all federal, state and local government web resources and services.